[[{"header":{"parameterUnit":"m.s-1","parameterCategory":1,"la1":30.2992,"la2":30.254,"lo1":-89.0895,"lo2":-89.0443,"dy":0.0025,"dx":0.0025,"nx":19,"ny":19,"refTime":"2026-05-23T21:00:00:Z","depth":0,"parameterNumber":2,"parameterNumberName":"U-component_of_WINDS"},"data":[0,0,0,0.5599,0.5598,0.5514,0.5514,0.5441,0.544,0,0,0,0,0,0,0,0,0,0,0,0.5645,0.5646,0.5599,0.5597,0.5515,0.5514,0.5441,0.544,0,0,0,0,0,0,0,0,0,0,0,0.5645,0.5645,0.5646,0.5597,0.5515,0.5514,0.5441,0.5491,0,0,0,0,0,0,0,0,0,0,0.5566,0.5631,0.5645,0.5646,0.5597,0.5515,0.5514,0.5493,0.5488,0.5493,0,0.5505,0,0.5472,0.5438,0.5438,0,0,0,0.5581,0.5635,0.5593,0.5646,0.5596,0.5515,0.5547,0.549,0.5485,0.5487,0.5504,0.55,0.5471,0.5438,0.5437,0.5525,0.5526,0,0,0.5585,0.5642,0.5597,0.5591,0.5608,0.555,0.5545,0.5486,0.5508,0.5503,0.5497,0.5469,0.5437,0.5437,0.5524,0.5525,0,0,0,0.561,0.5646,0.5604,0.5595,0.5578,0.5548,0.5542,0.551,0.5492,0.5496,0.5469,0.5437,0.5437,0.5522,0.5524,0.564,0,0,0,0.5612,0.566,0.5607,0.5641,0.5579,0.5543,0.5568,0.5496,0.5488,0.5469,0.5437,0.5436,0.5521,0.5523,0.5634,0.5685,0,0,0,0.5643,0.5663,0.5659,0.5644,0.5611,0.5543,0.5521,0.5493,0.5472,0.5438,0.5436,0.552,0.5523,0.5628,0.5676,0.5725,0,0,0,0.5693,0.5762,0.5662,0.5728,0.5612,0.5615,0.552,0.5519,0.5504,0.5437,0.5521,0.5524,0.5626,0.567,0.572,0.5778,0.5808,0,0,0.5812,0.5778,0.5812,0.572,0.5756,0.5623,0.5674,0.5606,0.555,0.5536,0.5537,0.5636,0.5675,0.5724,0.595,0.5974,0,0,0,0.5869,0.5895,0.5892,0.5881,0.5831,0.5792,0.571,0.5684,0.5669,0.5555,0.5664,0.5686,0.5712,0.5737,0.5758,0.5777,0.5538,0.5538,0.5537,0.612,0.6045,0.6097,0.6012,0.6002,0.5916,0.5901,0.5851,0.5778,0.5805,0.5801,0.5947,0.5979,0.5994,0.6015,0.5824,0.5825,0.5825,0.5825,0.6288,0.6313,0.6213,0.6229,0.6148,0.6159,0.6078,0.6026,0.6023,0.5944,0.5963,0.5885,0.6022,0.6036,0.5833,0.5832,0.5831,0.583,0.5829,0.6445,0.6444,0.6412,0.6387,0.6376,0.6286,0.6289,0.6215,0.6145,0.6164,0.6152,0.6149,0.6139,0.6163,0.6163,0.6164,0.6164,0.6165,0.6165,0.6621,0.6581,0.6593,0.6546,0.6528,0.6496,0.6409,0.6389,0.6347,0.6293,0.6293,0.6218,0.6049,0.601,0.6173,0.6171,0.617,0.617,0.6169,0.6822,0.6765,0.6784,0.6767,0.6704,0.6698,0.6602,0.6568,0.654,0.6544,0.6463,0.635,0.6311,0.6294,0.6261,0.6479,0.6479,0.6479,0.6479,0.6956,0.6928,0.6931,0.6908,0.6877,0.6793,0.6815,0.6747,0.6667,0.6645,0.6602,0.6551,0.6537,0.6506,0.6484,0.6452,0.6714,0.6714,0.6714,0.7075,0.7041,0.7076,0.6999,0.6944,0.6897,0.6916,0.6892,0.6789,0.6722,0.6626,0.6616,0.6533,0.6509,0.6443,0.6412,0.6351,0,0]},{"header":{"parameterUnit":"m.s-1","parameterCategory":1,"la1":30.2992,"la2":30.254,"lo1":-89.0895,"lo2":-89.0443,"dy":0.0025,"dx":0.0025,"nx":19,"ny":19,"refTime":"2026-05-23T21:00:00:Z","depth":0,"parameterNumber":3,"parameterNumberName":"V-component_of_WINDS"},"data":[0,0,0,6.4753,6.4755,6.4815,6.4815,6.4909,6.491,0,0,0,0,0,0,0,0,0,0,0,6.4748,6.4749,6.4753,6.4755,6.4815,6.4815,6.4909,6.491,0,0,0,0,0,0,0,0,0,0,0,6.4748,6.4749,6.4751,6.4755,6.4815,6.4815,6.4908,6.4857,0,0,0,0,0,0,0,0,0,0,6.4795,6.4804,6.4749,6.4751,6.4756,6.4815,6.4815,6.4854,6.486,6.489,0,6.4922,0,6.4917,6.4917,6.4918,0,0,0,6.4745,6.4799,6.4803,6.4751,6.4756,6.4815,6.4785,6.4857,6.4864,6.4898,6.4923,6.4926,6.4919,6.4918,6.4919,6.5123,6.5124,0,0,6.4742,6.4766,6.4799,6.4809,6.4803,6.4783,6.4787,6.4861,6.4889,6.4923,6.4928,6.492,6.4919,6.492,6.5122,6.5123,0,0,0,6.4739,6.4764,6.4766,6.4805,6.4815,6.4785,6.479,6.4886,6.4884,6.4928,6.4922,6.492,6.4921,6.512,6.5122,6.5212,0,0,0,6.4736,6.4763,6.4765,6.4781,6.4814,6.4852,6.4814,6.4879,6.4887,6.4921,6.492,6.4922,6.5118,6.5121,6.5206,6.5249,0,0,0,6.474,6.4763,6.4776,6.4782,6.4809,6.485,6.4853,6.4881,6.4883,6.4918,6.4922,6.5117,6.5121,6.5201,6.5241,6.5305,0,0,0,6.4751,6.4859,6.4778,6.4895,6.4809,6.4907,6.4852,6.4924,6.4965,6.492,6.5119,6.5122,6.5199,6.5236,6.53,6.5361,6.539,0,0,6.49,6.4878,6.4945,6.4874,6.4992,6.4896,6.5026,6.5041,6.5023,6.509,6.5094,6.5208,6.524,6.5304,6.5552,6.5575,0,0,0,6.5,6.5047,6.5073,6.5112,6.5126,6.5138,6.5131,6.5135,6.519,6.5063,6.525,6.5269,6.5305,6.5333,6.5353,6.5379,6.5137,6.5137,6.5137,6.5246,6.5214,6.5319,6.5293,6.5332,6.532,6.5346,6.535,6.5311,6.5355,6.5373,6.5527,6.5561,6.5575,6.5604,6.5407,6.5407,6.5407,6.5408,6.5457,6.5516,6.5456,6.5536,6.5501,6.5568,6.5559,6.5527,6.5581,6.5513,6.5543,6.5466,6.5602,6.5625,6.5414,6.5413,6.5412,6.5412,6.5411,6.561,6.5632,6.5635,6.5683,6.5723,6.5693,6.5746,6.5714,6.5684,6.5715,6.5726,6.5724,6.5714,6.5723,6.5724,6.5724,6.5725,6.5725,6.5725,6.5766,6.5766,6.5815,6.5833,6.585,6.5868,6.5854,6.5869,6.5877,6.5849,6.5849,6.58,6.5623,6.5576,6.5733,6.5732,6.5731,6.573,6.573,6.5984,6.5928,6.6004,6.602,6.6035,6.6073,6.6031,6.6063,6.6071,6.6097,6.6042,6.5918,6.5892,6.5876,6.5837,6.6052,6.6052,6.6052,6.6052,6.6109,6.6093,6.6158,6.6186,6.6209,6.6176,6.6257,6.6245,6.6224,6.6226,6.6191,6.6137,6.6123,6.6105,6.6084,6.6046,6.631,6.6311,6.6311,6.6238,6.6222,6.6298,6.6275,6.6283,6.6289,6.6362,6.6393,6.6359,6.6321,6.6225,6.6214,6.6127,6.6102,6.6059,6.6027,6.5957,0,0]}]]